{"data":{"norad_id":67362,"intl_designator":"2026-003AE","name":"STARLINK-36428","alt_names":[],"object_type":"PAYLOAD","status":"ACTIVE","operator":null,"country":"US","launch_date":"2026-01-09","launch_site_code":"AFETR","launch_vehicle":null,"mission":null,"orbit_class":"UNKNOWN","rcs_meters":null,"size_class":null,"mass_kg":null,"dimensions":null,"purposes":["comms"],"wikipedia_slug":null,"has_3d_model":false,"image_url":null,"decayed_at":null,"tle_current":{"epoch":"2026-09-19T05:22:21.834912Z","epoch_age_seconds":185628,"freshness":"STALE","line1":"1 67362U 26003AE  26262.22386383  .00014353  00000+0  52993-3 0  9994","line2":"2 67362  42.9983 213.9785 0001103  18.3624 341.7267 15.27589773 38426","mean_motion":15.27589773,"eccentricity":0.0001103,"inclination_deg":42.9983,"raan_deg":213.9785,"arg_perigee_deg":18.3624,"mean_anomaly_deg":341.7267,"bstar":0.00052993,"rev_number":3842,"period_min":94.266145627043,"perigee_km":482.26304671925,"apogee_km":483.77661791646,"semimajor_km":6861.1568323179,"source":"CELESTRAK","updated_at":"2026-09-20T09:00:43.518000Z"}}}